Tacoma Narrows, WA
on Saturday, December 8, 2012

Saturday
Previous Day Next Day
Daily Summary
 ActualAverageRecord
Temperature
Mean Temperature °F °F  
Max Temperature 43°F 45°F 52°F (2010)
Min Temperature 39°F 38°F 19°F (2013)
Degree Days
Heating Degree Days 24    
Moisture
Dew Point 34°F   
Average Humidity 77    
Maximum Humidity 87    
Minimum Humidity 67    
Precipitation
Precipitation 0.00 in in in ()
Wind
Wind Speed 4 mph   
Max Wind Speed 9 mph   
Max Gust Speed mph   
Visibility 10 miles   
Events     
Averages and records for this station are not official NWS values.
Key: T is trace of precipitation, MM is missing value
Source: NWS Daily Summary
Seasonal Weather Averages
Time(PST)TemperatureDew PointHumidity Pressure Visibility Wind DirectionWind SpeedGust SpeedPrecipitationEvents Conditions
12:53 AM 39.9°F 33.1°F 77% 30.16 in 10.0 miles SSW 3.5 mph - N/A   Mostly Cloudy
1:53 AM 41.0°F 32.0°F 70% 30.17 in 10.0 miles SSW 8.1 mph - N/A   Scattered Clouds
2:53 AM 41.0°F 32.0°F 70% 30.17 in 10.0 miles SW 9.2 mph - N/A   Mostly Cloudy
3:53 AM 39.9°F 33.1°F 77% 30.17 in 10.0 miles SW 9.2 mph - N/A   Clear
4:53 AM 39.0°F 34.0°F 82% 30.17 in 10.0 miles SSW 4.6 mph - N/A   Clear
5:42 AM 39.2°F 33.8°F 81% 30.17 in 10.0 miles South 4.6 mph - N/A   Mostly Cloudy
5:53 AM 39.0°F 34.0°F 82% 30.18 in 10.0 miles SSW 5.8 mph - N/A   Mostly Cloudy
6:05 AM 39.2°F 33.8°F 81% 30.18 in 10.0 miles Variable 6.9 mph - N/A   Scattered Clouds
6:21 AM 39.2°F 33.8°F 81% 30.18 in 10.0 miles SSW 6.9 mph - N/A   Mostly Cloudy
6:53 AM 39.9°F 34.0°F 79% 30.20 in 10.0 miles South 3.5 mph - N/A   Overcast
7:53 AM 39.9°F 34.0°F 79% 30.20 in 10.0 miles South 6.9 mph - N/A   Overcast
8:53 AM 39.9°F 34.0°F 79% 30.22 in 10.0 miles Variable 4.6 mph - N/A   Mostly Cloudy
9:53 AM 41.0°F 35.1°F 79% 30.24 in 10.0 miles SSW 6.9 mph - N/A   Scattered Clouds
10:53 AM 42.1°F 35.1°F 76% 30.25 in 10.0 miles Calm Calm - N/A   Scattered Clouds
11:53 AM 43.0°F 35.1°F 74% 30.25 in 10.0 miles Calm Calm - N/A   Overcast
12:53 PM 43.0°F 34.0°F 71% 30.25 in 10.0 miles Calm Calm - N/A   Overcast
1:53 PM 43.0°F 34.0°F 71% 30.26 in 10.0 miles Calm Calm - N/A   Mostly Cloudy
2:53 PM 43.0°F 34.0°F 71% 30.27 in 10.0 miles Calm Calm - N/A   Mostly Cloudy
3:53 PM 42.1°F 34.0°F 73% 30.29 in 10.0 miles Calm Calm - N/A   Overcast
4:53 PM 42.1°F 32.0°F 67% 30.30 in 10.0 miles NNE 3.5 mph - N/A   Mostly Cloudy
5:53 PM 41.0°F 33.1°F 73% 30.30 in 10.0 miles Calm Calm - N/A   Overcast
6:53 PM 41.0°F 33.1°F 73% 30.31 in 10.0 miles Calm Calm - N/A   Overcast
7:53 PM 41.0°F 34.0°F 76% 30.33 in 10.0 miles Calm Calm - N/A   Overcast
8:53 PM 41.0°F 34.0°F 76% 30.33 in 10.0 miles Calm Calm - N/A   Overcast
9:53 PM 39.9°F 35.1°F 83% 30.35 in 10.0 miles Calm Calm - N/A   Mostly Cloudy
10:53 PM 39.9°F 35.1°F 83% 30.35 in 10.0 miles Calm Calm - N/A   Overcast
11:37 PM 39.2°F 35.6°F 87% 30.35 in 10.0 miles Calm Calm - N/A   Overcast
11:53 PM 41.0°F 37.0°F 86% 30.35 in 10.0 miles SSW 3.5 mph - N/A   Overcast
Moon Phase
Dec. 08 Dec. 13 Dec. 20 Dec. 28 Jan. 04
Sunrise:07:44 AM (PST) Moon Rise:01:58 AM (PST)12/8
Sunset:04:20 PM (PST) Moon Set:01:08 PM (PST)12/8

Copyright © 2014 The Weather Underground, Inc.